Eugene, OR

11:54 AM PDT on June 28, 2017 (GMT -0700)
Mahlon Sweet

Weather History for KEUG - April, 2014

Change the Weather History Date:

Friday, April 18, 2014

  Actual Average Record
Temperature  
Mean Temperature 48 °F 50 °F  
Max Temperature 62 °F 61 °F 84 °F (1934)
Min Temperature 34 °F 40 °F 29 °F (1982)
Degree Days  
Heating Degree Days 17 15  
Month to date heating degree days 219 282  
Since 1 July heating degree days 4271 4178  
Cooling Degree Days 0 0  
Month to date cooling degree days 0 0  
Year to date cooling degree days 0 0  
Moisture  
Dew Point 38 °F    
Average Humidity 73    
Maximum Humidity 100    
Minimum Humidity 46    
Precipitation  
Precipitation 0.00 in 0.11 in 0.84 in (1965)
Month to date precipitation 0.57 2.17  
Year to date precipitation 17.65 19.46  
Sea Level Pressure  
Sea Level Pressure 30.08 in    
Wind  
Wind Speed 6 mph (NNW)    
Max Wind Speed 16 mph    
Max Gust Speed 21 mph    
Visibility 4 miles    
Events Fog    
T = Trace of Precipitation, MM = Missing Value Source: NWS Daily Summary

Daily Weather History Graph

Daily Weather History Graph

Search for Another Location

Airport or City:

Trip Planner

Search our weather history database for the weather conditions in past years. The results will help you decide how hot, cold, wet, or windy it might be!

Date:

Astronomy

Apr. 18, 2014 Rise Set
Actual Time 6:24 AM PDT 8:00 PM PDT
Civil Twilight 5:53 AM PDT 8:31 PM PDT
Nautical Twilight 5:17 AM PDT 9:08 PM PDT
Astronomical Twilight 4:37 AM PDT 9:48 PM PDT
Moon 11:56 PM PDT (4/18) 8:46 AM PDT (4/18)
Length of Visible Light 14h 37m
Length of Day
13h 36m
Waning Gibbous, 86% of the Moon is Illuminated
Apr 18
Waning Gibbous
Apr 22
Last Quarter
Apr 28
New
May 6
First Quarter
May 14
Full

Hourly Weather History & Observations

Time (PDT) Temp. Windchill Dew Point Humidity Pressure Visibility Wind Dir Wind Speed Gust Speed Precip Events Conditions
12:54 AM 43.0 °F - 41.0 °F 93% 30.10 in 6.0 mi Calm Calm - N/A   Clear
1:19 AM 39.9 °F 37.8 °F 39.0 °F 97% 30.10 in 2.5 mi North 3.5 mph - N/A   Partly Cloudy
1:22 AM 39.0 °F 36.8 °F 37.9 °F 96% 30.10 in 1.2 mi NNE 3.5 mph - N/A   Partly Cloudy
1:25 AM 39.0 °F 36.8 °F 37.9 °F 96% 30.10 in 0.8 mi NNE 3.5 mph - N/A   Mist
1:33 AM 37.9 °F - 37.0 °F 97% 30.10 in 0.8 mi Calm Calm - N/A   Clear
1:45 AM 39.0 °F - 37.0 °F 93% 30.10 in 1.0 mi Calm Calm - N/A   Clear
1:47 AM 39.0 °F - 37.0 °F 93% 30.10 in 0.8 mi Calm Calm - N/A   Mist
1:54 AM 37.9 °F - 36.0 °F 93% 30.11 in 0.5 mi Calm Calm - N/A Fog Fog
2:04 AM 39.0 °F - 37.0 °F 93% 30.10 in 1.2 mi Calm Calm - N/A   Partly Cloudy
2:11 AM 39.0 °F 36.8 °F 37.9 °F 96% 30.10 in 2.0 mi SSW 3.5 mph - N/A   Partly Cloudy
2:18 AM 37.9 °F 35.5 °F 36.0 °F 93% 30.11 in 1.2 mi WSW 3.5 mph - N/A   Clear
2:33 AM 37.0 °F - 36.0 °F 96% 30.11 in 0.8 mi Calm Calm - N/A   Mist
2:54 AM 36.0 °F 33.3 °F 35.1 °F 97% 30.11 in 0.5 mi NE 3.5 mph - N/A Fog Fog
3:37 AM 36.0 °F - 34.0 °F 93% 30.11 in 0.2 mi Calm Calm - N/A Fog Fog
3:47 AM 36.0 °F - 34.0 °F 93% 30.12 in 0.2 mi Calm Calm - N/A Fog Fog
3:54 AM 36.0 °F - 35.1 °F 97% 30.12 in 0.5 mi Calm Calm - N/A Fog Fog
4:00 AM 37.9 °F - 36.0 °F 93% 30.11 in 0.2 mi Calm Calm - N/A Fog Fog
4:39 AM 36.0 °F 32.1 °F 34.0 °F 93% 30.12 in 0.2 mi West 4.6 mph - N/A Fog Fog
4:46 AM 36.0 °F 33.3 °F 34.0 °F 93% 30.12 in 0.2 mi West 3.5 mph - N/A Fog Fog
4:54 AM 36.0 °F 33.3 °F 34.0 °F 93% 30.13 in 0.8 mi West 3.5 mph - N/A   Mist
5:01 AM 36.0 °F 33.3 °F 34.0 °F 93% 30.12 in 0.5 mi WSW 3.5 mph - N/A Fog Fog
5:05 AM 35.1 °F 32.2 °F 34.0 °F 96% 30.12 in 0.2 mi West 3.5 mph - N/A Fog Fog
5:18 AM 35.1 °F - 33.1 °F 92% 30.12 in 0.2 mi Calm Calm - N/A Fog Fog
5:28 AM 34.0 °F - 33.1 °F 96% 30.12 in 0.5 mi Calm Calm - N/A Fog Fog
5:54 AM 34.0 °F 31.0 °F 33.1 °F 96% 30.13 in 0.2 mi East 3.5 mph - N/A Fog Fog
6:41 AM 37.0 °F - 36.0 °F 96% 30.13 in 0.1 mi Calm Calm - N/A Fog Fog
6:54 AM 37.9 °F 34.4 °F 37.0 °F 97% 30.14 in 0.1 mi SE 4.6 mph - N/A Fog Fog
7:12 AM 39.0 °F 35.7 °F 39.0 °F 100% 30.13 in 0.1 mi SSE 4.6 mph - N/A Fog Fog
7:54 AM 41.0 °F - 39.9 °F 96% 30.14 in 0.2 mi Calm Calm - N/A Fog Fog
8:12 AM 42.1 °F - 41.0 °F 96% 30.14 in 0.5 mi Calm Calm - N/A Fog Fog
8:19 AM 42.1 °F - 41.0 °F 96% 30.14 in 0.2 mi Calm Calm - N/A Fog Fog
8:54 AM 43.0 °F - 42.1 °F 97% 30.14 in 0.8 mi Calm Calm - N/A   Overcast
9:07 AM 43.0 °F - 41.0 °F 93% 30.13 in 1.5 mi Calm Calm - N/A   Overcast
9:54 AM 44.1 °F - 42.1 °F 93% 30.14 in 5.0 mi Calm Calm - N/A   Overcast
10:09 AM 45.0 °F 42.6 °F 42.1 °F 90% 30.13 in 6.0 mi North 4.6 mph - N/A   Overcast
10:54 AM 46.9 °F - 43.0 °F 86% 30.14 in 6.0 mi Variable 3.5 mph - N/A   Mostly Cloudy
11:17 AM 50.0 °F - 44.1 °F 80% 30.13 in 10.0 mi North 9.2 mph - N/A   Mostly Cloudy
11:54 AM 54.0 °F - 44.1 °F 69% 30.13 in 10.0 mi North 12.7 mph - N/A   Mostly Cloudy
12:54 PM 55.9 °F - 43.0 °F 62% 30.11 in 10.0 mi North 13.8 mph - N/A   Mostly Cloudy
1:54 PM 59.0 °F - 43.0 °F 55% 30.08 in 10.0 mi NNE 12.7 mph - N/A   Mostly Cloudy
2:54 PM 59.0 °F - 42.1 °F 53% 30.05 in 10.0 mi North 12.7 mph - N/A   Mostly Cloudy
3:54 PM 60.1 °F - 39.9 °F 47% 30.03 in 10.0 mi North 12.7 mph - N/A   Mostly Cloudy
4:54 PM 61.0 °F - 39.9 °F 46% 30.00 in 10.0 mi North 11.5 mph - N/A   Mostly Cloudy
5:54 PM 57.9 °F - 44.1 °F 60% 29.98 in 10.0 mi North 9.2 mph - N/A   Mostly Cloudy
6:54 PM 57.0 °F - 44.1 °F 62% 29.96 in 10.0 mi North 8.1 mph - N/A   Mostly Cloudy
7:54 PM 51.1 °F - 43.0 °F 74% 29.95 in 10.0 mi North 6.9 mph - N/A   Mostly Cloudy
8:54 PM 48.0 °F - 41.0 °F 77% 29.94 in 10.0 mi NW 3.5 mph - N/A   Partly Cloudy
9:54 PM 45.0 °F - 39.9 °F 82% 29.93 in 10.0 mi Calm Calm - N/A   Clear
10:54 PM 44.1 °F - 37.9 °F 79% 29.91 in 10.0 mi Calm Calm - N/A   Clear
11:54 PM 39.9 °F 36.7 °F 37.0 °F 89% 29.89 in 10.0 mi South 4.6 mph - N/A   Clear